sat.trackr.live / text

‹ back to catalog

TRANSPORTER-16 OBJECT L

NORAD 68426 · 2026-067L

PAYLOAD ACTIVE UNKNOWN

§ Identity

Operator
Country
TBD
Launch date
2026-03-30
Launch site
AFWTR
Launch vehicle
Mass (kg)
RCS (m²)

External: N2YO · Heavens-Above · Gunter

§ Orbital elements

Epoch: 2026-09-19T03:06:12.906720Z

Period
94.64 min
Inclination
97.4641°
Eccentricity
0.0003125
Mean motion
15.21561554 rev/d
Perigee alt
499.0 km
Apogee alt
503.3 km
Semi-major
6,879.3 km
B*
5.0461e-4
RAAN
219.7284°
Arg perigee
61.0749°
Mean anomaly
299.0800°
Rev number
2,622

§ Raw data

TRANSPORTER-16 OBJECT L1 68426U 26067L   26262.12931605  .00011314  00000+0  50461-3 0  99902 68426  97.4641 219.7284 0003125  61.0749 299.0800 15.21561554 26225

JSON: /api/v1/satellites/68426 · /tle

For live sub-satellite position, see the globe view (requires WebGL).

§ Visibility from observer

Set your observer location to see the next 7 days of passes ≥ 10°. The values pass through the URL so the page stays shareable.

No JS? Fill the form by hand. The geolocation button needs JavaScript.